Location: Central Coast
(33.3208°S, 151.2336°E)
Time: 01:59:01
(UTC+11:00)

Envisat - Visible Passes

Search period start: 24 October 2017 00:00
Search period end: 03 November 2017 00:00
Orbit: 764 x 766 km, 98.2° (Epoch: 23 October)

Date Brightness Start Highest point End Pass type
(mag) Time Alt. Az. Time Alt. Az. Time Alt. Az.
24 Oct 4.5 20:22:34 10° SE 20:25:26 18° E 20:25:26 18° E visible
24 Oct 4.0 22:00:19 10° S 22:05:08 42° WSW 22:05:39 41° W visible
25 Oct 2.8 21:23:24 10° SSE 21:28:33 81° ENE 21:28:39 80° ENE visible
26 Oct 3.7 20:47:09 10° SSE 20:51:39 33° E 20:51:39 33° E visible
26 Oct 5.0 22:26:31 10° SSW 22:30:32 24° WSW 22:31:51 21° W visible
27 Oct 4.7 20:12:16 10° ESE 20:14:39 14° E 20:14:39 14° E visible
27 Oct 3.6 21:49:04 10° S 21:54:05 55° WSW 21:54:51 50° WNW visible
28 Oct 2.9 21:12:20 10° SSE 21:17:27 62° E 21:17:51 60° NE visible
28 Oct 5.7 22:53:31 10° SW 22:55:51 13° WSW 22:58:04 10° W visible
29 Oct 4.0 20:36:22 10° SE 20:40:37 26° E 20:40:51 26° E visible
29 Oct 4.7 22:15:06 10° S 22:19:32 30° WSW 22:21:04 25° W visible
30 Oct 4.9 20:03:30 10° E 20:03:35 10° E 20:03:39 10° E visible
30 Oct 3.1 21:37:53 10° S 21:43:01 71° WSW 21:44:03 55° NW visible
31 Oct 3.2 21:01:21 10° SSE 21:06:19 47° E 21:07:03 44° NE visible
31 Oct 5.5 22:41:39 10° SSW 22:44:53 17° WSW 22:47:16 13° W visible
01 Nov 4.3 20:25:43 10° SE 20:29:26 20° E 20:30:02 19° ENE visible
01 Nov 4.3 22:03:46 10° S 22:08:30 38° WSW 22:10:15 29° WNW visible
02 Nov 2.9 21:26:46 10° SSE 21:31:56 89° E 21:33:14 52° NNW visible
